Location: Newark
(48.5156°N, 1.8989°W)
Time: 23:15:58
(UTC+00:00)

Courier 1B - Pass Details

Date: 25 November 2019
Orbit: 963 x 1209 km, 28.3° (Epoch: 15 December)

Event Time Altitude Azimuth Distance (km) Brightness Sun altitude
Exits shadow 04:38:57 11° 196° (SSW) 2,888 9.8 -27.7°
Maximum altitude 04:41:33 13° 174° (S) 2,689 9.8 -27.3°
Drops below altitude 10° 04:44:32 10° 149° (SSE) 2,873 10.3 -26.8°
Sets 04:48:55 0° 123° (ESE) 3,770 11.5 -26.1°
